QPF
0.00 0.00 0.00 0.00 0.00 0.00 0.00 0.00 0.00 0.00 0.00 0.00 0.00 0.00 0.00 0.00 0.00 0.00 0.00 0.00 0.02 0.01 0.01 0.01 0.01 0.00 0.00 0.00 0.00 0.00 0.00 0.01 0.03
0.00 0.01 0.00 0.00 0.00 0.00 0.00 0.00 0.00 0.00 0.00 0.00 0.00 0.00 0.00 0.00 0.00 0.00 0.00 0.01 0.00 0.00 0.00 0.00 0.00 0.01 0.01 0.02 0.00 0.00 0.02 0.02 0.02
0.01 0.00 0.00 0.00 0.00 0.00 0.00 0.00 0.00 0.00 0.00 0.00 0.00 0.00 0.00 0.00 0.00 0.00 0.00 0.00 0.00 0.00 0.00 0.00 0.00 0.00 0.00 0.01 0.03 0.02 0.02 0.03 0.02
0.01 0.00 0.00 0.00 0.00 0.00 0.00 0.00 0.00 0.00 0.00 0.00 0.00 0.00 0.00 0.00 0.00 0.00 0.00 0.00 0.00 0.00 0.00 0.00 0.00 0.00 0.00 0.00 0.00 0.01 0.02 0.02 0.01
0.00 0.00 0.00 0.00 0.00 0.00 0.00 0.00 0.00 0.00 0.00 0.00 0.00 0.00 0.00 0.00 0.00 0.00 0.00 0.00 0.00 0.00 0.00 0.00 0.00 0.00 0.00 0.00 0.00 0.00 0.00 0.00 0.00
0.00 0.00 0.00 0.00 0.00 0.00 0.00 0.00 0.00 0.00 0.00 0.00 0.00 0.00 0.00 0.00 0.00 0.00 0.00 0.00 0.00 0.00 0.00 0.00 0.00 0.00 0.00 0.00 0.00 0.00 0.00 0.00 0.00
0.00 0.00 0.00 0.00 0.00 0.00 0.00 0.00 0.00 0.00 0.00 0.00 0.00 0.00 0.00 0.00 0.00 0.00 0.00 0.00 0.00 0.00 0.00 0.00 0.00 0.00 0.00 0.00 0.00 0.00 0.00 0.00 0.00
0.00 0.00 0.00 0.00 0.00 0.00 0.00 0.00 0.00 0.00 0.00 0.00 0.00 0.00 0.00 0.00 0.00 0.00 0.00 0.00 0.00 0.00 0.00 0.00 0.00 0.00 0.00 0.00 0.00 0.00 0.00 0.00 0.00
0.00 0.00 0.00 0.00 0.00 0.00 0.00 0.00 0.00 0.00 0.00 0.00 0.00 0.00 0.00 0.00 0.00 0.00 0.00 0.00 0.00 0.00 0.00 0.00 0.00 0.00 0.00 0.00 0.00 0.00 0.00 0.00 0.00
0.00 0.00 0.00 0.00 0.00 0.00 0.00 0.00 0.00 0.00 0.00 0.00 0.00 0.00 0.00 0.00 0.00 0.00 0.00 0.00 0.00 0.00 0.00 0.00 0.00 0.00 0.00 0.00 0.00 0.00 0.00 0.00 0.00
0.00 0.00 0.00 0.00 0.00 0.00 0.00 0.00 0.00 0.00 0.00 0.00 0.00 0.00 0.00 0.00 0.00 0.00 0.00 0.00 0.00 0.00 0.00 0.00 0.00 0.00 0.00 0.00 0.00 0.00 0.00 0.00 0.00
0.00 0.00 0.00 0.00 0.00 0.00 0.00 0.00 0.00 0.00 0.00 0.00 0.00 0.00 0.00 0.00 0.00 0.00 0.00 0.00 0.00 0.00 0.00 0.00 0.00 0.00 0.00 0.00 0.00 0.00 0.00 0.00 0.00
0.00 0.00 0.00 0.00 0.00 0.00 0.00 0.00 0.00 0.00 0.00 0.00 0.00 0.00 0.00 0.00 0.00 0.00 0.00 0.00 0.00 0.00 0.00 0.00 0.00 0.00 0.00 0.00 0.00 0.00 0.00 0.00 0.00
0.00 0.00 0.00 0.00 0.00 0.00 0.00 0.00 0.00 0.00 0.00 0.00 0.00 0.00 0.00 0.00 0.00 0.00 0.00 0.00 0.00 0.00 0.00 0.00 0.00 0.00 0.00 0.00 0.00 0.00 0.00 0.00 0.00
0.00 0.00 0.00 0.00 0.00 0.00 0.00 0.00 0.00 0.00 0.00 0.00 0.00 0.00 0.00 0.00 0.00 0.00 0.00 0.00 0.00 0.01 0.00 0.00 0.00 0.00 0.00 0.00 0.00 0.00 0.00 0.00 0.00
0.00 0.00 0.00 0.00 0.00 0.01 0.01 0.01 0.01 0.00 0.00 0.00 0.00 0.00 0.00 0.00 0.00 0.00 0.00 0.00 0.00 0.01 0.01 0.01 0.00 0.00 0.00 0.00 0.00 0.00 0.00 0.00 0.00
0.01 0.00 0.00 0.00 0.00 0.00 0.00 0.00 0.00 0.00 0.00 0.01 0.00 0.00 0.00 0.00 0.00 0.00 0.00 0.00 0.00 0.00 0.01 0.01 0.01 0.00 0.00 0.00 0.00 0.00 0.00 0.01 0.01
0.00 0.00 0.00 0.00 0.00 0.00 0.00 0.00 0.00 0.00 0.00 0.00 0.01 0.00 0.00 0.00 0.00 0.00 0.00 0.00 0.00 0.00 0.00 0.00 0.01 0.01 0.00 0.00 0.00 0.01 0.01 0.01 0.04
0.00 0.00 0.00 0.00 0.00 0.00 0.00 0.00 0.00 0.00 0.00 0.00 0.00 0.00 0.00 0.00 0.00 0.00 0.00 0.00 0.00 0.00 0.00 0.00 0.00 0.00 0.00 0.00 0.00 0.00 0.00 0.01 0.03
0.00 0.00 0.00 0.00 0.00 0.00 0.00 0.00 0.00 0.00 0.00 0.00 0.00 0.00 0.00 0.00 0.00 0.00 0.00 0.00 0.00 0.00 0.00 0.00 0.00 0.00 0.00 0.00 0.00 0.00 0.00 0.01 0.02
MSLP
1019.25 1019.38 1019.68 1020.03 1020.11 1020.33 1020.63 1020.80 1020.84 1020.89 1020.92 1020.99 1021.06 1021.14 1021.24 1021.46 1021.57 1021.54 1021.42 1021.31 1021.09 1021.18 1021.18 1021.24 1021.17 1021.33 1021.38 1021.34 1021.29 1021.36 1021.30 1021.22 1021.19
1019.44 1019.69 1019.96 1020.19 1020.35 1020.62 1020.87 1020.92 1021.07 1021.18 1021.20 1021.29 1021.36 1021.48 1021.63 1021.82 1021.81 1021.74 1021.65 1021.46 1021.30 1021.45 1021.50 1021.68 1021.54 1021.56 1021.59 1021.47 1021.46 1021.50 1021.54 1021.52 1021.60
1019.75 1020.05 1020.28 1020.47 1020.67 1020.81 1020.99 1021.11 1021.26 1021.37 1021.50 1021.63 1021.65 1021.81 1022.00 1022.19 1022.24 1022.17 1022.02 1021.75 1021.72 1021.76 1021.75 1021.82 1021.85 1021.81 1021.83 1021.78 1021.76 1021.76 1021.90 1021.94 1021.90
1019.91 1020.29 1020.53 1020.72 1020.89 1021.05 1021.15 1021.28 1021.48 1021.58 1021.76 1021.93 1022.05 1022.13 1022.23 1022.38 1022.44 1022.35 1022.33 1022.10 1022.07 1022.11 1022.13 1022.09 1022.15 1022.20 1022.20 1022.09 1022.00 1022.08 1022.18 1022.22 1022.21
1020.13 1020.32 1020.58 1020.82 1020.99 1021.02 1021.21 1021.30 1021.48 1021.72 1022.01 1022.23 1022.31 1022.38 1022.48 1022.58 1022.63 1022.66 1022.54 1022.30 1022.31 1022.42 1022.49 1022.56 1022.54 1022.62 1022.54 1022.50 1022.43 1022.43 1022.33 1022.53 1022.63
1020.60 1020.77 1020.93 1021.05 1021.13 1021.20 1021.28 1021.32 1021.43 1021.66 1022.02 1022.20 1022.32 1022.44 1022.61 1022.69 1022.77 1022.77 1022.68 1022.49 1022.47 1022.59 1022.74 1022.80 1022.82 1022.83 1022.90 1022.83 1022.82 1022.83 1022.89 1022.91 1022.98
1020.80 1020.99 1021.10 1021.18 1021.22 1021.32 1021.34 1021.41 1021.54 1021.82 1022.32 1022.58 1022.51 1022.67 1022.65 1022.73 1022.82 1022.80 1022.73 1022.56 1022.53 1022.68 1022.78 1022.83 1022.93 1022.96 1023.03 1023.08 1023.08 1023.15 1023.16 1023.11 1023.16
1020.92 1021.17 1021.29 1021.37 1021.32 1021.43 1021.45 1021.64 1021.78 1022.01 1022.30 1022.65 1022.74 1022.78 1022.82 1022.82 1022.73 1022.70 1022.65 1022.54 1022.41 1022.64 1022.79 1022.87 1022.94 1023.07 1023.19 1023.28 1023.39 1023.42 1023.40 1023.33 1023.34
1021.03 1021.25 1021.32 1021.44 1021.38 1021.46 1021.63 1021.74 1021.86 1022.00 1022.20 1022.49 1022.75 1022.85 1022.84 1022.79 1022.67 1022.64 1022.52 1022.48 1022.37 1022.40 1022.68 1022.82 1022.95 1023.10 1023.15 1023.28 1023.36 1023.46 1023.58 1023.58 1023.57
1020.91 1021.09 1021.20 1021.26 1021.30 1021.41 1021.61 1021.78 1021.87 1021.96 1022.13 1022.38 1022.58 1022.71 1022.65 1022.62 1022.51 1022.41 1022.35 1022.32 1022.30 1022.24 1022.39 1022.57 1022.75 1022.92 1023.09 1023.25 1023.45 1023.60 1023.65 1023.67 1023.69
1020.76 1020.87 1020.98 1021.08 1021.08 1021.21 1021.47 1021.61 1021.72 1021.84 1022.02 1022.18 1022.20 1022.31 1022.38 1022.34 1022.32 1022.22 1022.17 1022.09 1022.12 1022.17 1022.19 1022.31 1022.50 1022.70 1022.89 1023.08 1023.28 1023.45 1023.59 1023.69 1023.75
1020.28 1020.59 1020.71 1020.63 1020.78 1021.03 1021.30 1021.46 1021.58 1021.71 1021.75 1021.92 1021.85 1021.90 1021.85 1022.01 1022.01 1022.00 1021.93 1021.83 1021.82 1021.88 1021.81 1021.85 1022.06 1022.29 1022.45 1022.63 1022.93 1023.31 1023.40 1023.47 1023.65
1019.98 1020.24 1020.31 1020.23 1020.52 1020.81 1021.06 1021.17 1021.49 1021.59 1021.64 1021.67 1021.54 1021.47 1021.49 1021.49 1021.50 1021.59 1021.60 1021.69 1021.64 1021.52 1021.62 1021.62 1021.68 1021.87 1022.06 1022.20 1022.32 1022.54 1023.04 1023.36 1023.58
1019.43 1019.60 1019.71 1019.95 1020.30 1020.57 1020.76 1020.98 1021.25 1021.32 1021.39 1021.41 1021.22 1021.22 1021.16 1021.02 1020.95 1021.18 1021.26 1021.28 1021.37 1021.41 1021.39 1021.41 1021.51 1021.58 1021.70 1021.79 1021.91 1022.13 1022.59 1023.05 1023.32
1018.94 1019.14 1019.30 1019.63 1020.04 1020.32 1020.53 1020.70 1020.84 1020.95 1021.01 1021.07 1020.93 1020.90 1020.75 1020.68 1020.73 1020.49 1020.53 1020.64 1020.69 1020.81 1020.93 1021.10 1021.27 1021.37 1021.40 1021.52 1021.69 1021.85 1022.12 1022.59 1023.09
1018.61 1018.78 1019.01 1019.21 1019.57 1019.62 1019.83 1020.26 1020.48 1020.65 1020.70 1021.13 1020.69 1020.39 1020.16 1020.22 1020.04 1019.75 1019.87 1020.05 1020.05 1020.22 1020.45 1020.75 1020.98 1021.03 1021.11 1021.13 1021.21 1021.31 1021.41 1021.87 1022.33
1018.07 1018.24 1018.49 1018.70 1019.07 1019.29 1019.45 1019.81 1020.12 1020.17 1020.21 1020.45 1020.70 1020.30 1019.84 1019.76 1019.36 1019.53 1019.74 1019.80 1020.02 1020.09 1020.27 1020.45 1020.58 1020.73 1020.85 1020.79 1020.77 1020.94 1021.11 1021.22 1021.56
1017.88 1017.90 1018.00 1018.13 1018.49 1018.70 1018.87 1019.12 1019.46 1019.71 1019.75 1019.89 1020.02 1020.04 1019.98 1019.92 1019.43 1019.35 1019.58 1019.75 1019.89 1019.88 1019.88 1019.88 1019.85 1019.82 1020.15 1020.30 1020.47 1020.64 1020.87 1020.97 1021.37
1018.04 1017.91 1017.82 1017.79 1017.92 1018.24 1018.33 1018.60 1018.86 1019.23 1019.46 1019.78 1019.70 1019.67 1019.87 1020.01 1019.60 1019.45 1019.33 1019.38 1019.53 1019.53 1019.49 1019.74 1019.58 1019.57 1019.71 1019.77 1019.82 1020.13 1020.42 1020.64 1020.58
1018.59 1018.43 1018.20 1017.92 1017.76 1017.89 1017.98 1018.20 1018.43 1018.63 1018.89 1019.11 1019.22 1019.34 1019.58 1019.83 1020.07 1019.52 1019.57 1019.63 1019.40 1019.56 1019.55 1019.42 1019.38 1019.19 1019.28 1019.39 1019.60 1019.72 1019.99 1020.15 1020.50
Thickness
5726 5725 5722 5719 5717 5715 5712 5710 5708 5706 5705 5703 5702 5699 5697 5694 5693 5692 5691 5690 5689 5686 5685 5684 5683 5680 5677 5676 5675 5673 5672 5671 5669
5723 5721 5718 5715 5713 5711 5707 5706 5704 5702 5701 5698 5697 5694 5692 5690 5689 5688 5687 5685 5684 5681 5680 5677 5677 5675 5674 5673 5671 5669 5667 5666 5663
5719 5716 5713 5711 5709 5707 5705 5702 5700 5699 5696 5694 5692 5689 5687 5684 5683 5682 5682 5680 5679 5677 5676 5673 5671 5670 5668 5667 5666 5664 5661 5659 5658
5716 5712 5709 5707 5705 5703 5702 5699 5697 5695 5692 5688 5687 5684 5682 5681 5679 5677 5676 5675 5673 5671 5669 5669 5667 5664 5662 5661 5660 5658 5655 5654 5653
5712 5710 5707 5704 5702 5701 5699 5697 5695 5691 5687 5683 5681 5680 5678 5677 5675 5673 5672 5670 5669 5666 5664 5662 5660 5658 5657 5655 5654 5652 5651 5648 5646
5706 5704 5702 5700 5699 5698 5695 5694 5693 5690 5686 5682 5679 5677 5675 5673 5670 5668 5666 5665 5664 5661 5658 5657 5655 5653 5650 5649 5647 5645 5643 5641 5639
5704 5700 5698 5696 5695 5693 5692 5690 5688 5686 5682 5678 5675 5672 5671 5669 5667 5665 5663 5661 5659 5656 5654 5652 5649 5648 5645 5643 5641 5639 5638 5636 5634
5701 5697 5695 5693 5693 5691 5689 5686 5684 5682 5679 5675 5671 5668 5666 5665 5663 5661 5659 5656 5655 5651 5648 5646 5644 5641 5639 5636 5634 5632 5631 5630 5629
5697 5694 5692 5691 5690 5688 5686 5683 5680 5678 5675 5672 5668 5664 5663 5661 5659 5657 5655 5652 5650 5647 5644 5641 5638 5635 5634 5631 5629 5627 5624 5623 5622
5694 5692 5690 5688 5687 5686 5682 5679 5677 5674 5672 5668 5665 5661 5659 5658 5656 5653 5651 5648 5645 5642 5640 5637 5634 5631 5628 5626 5623 5620 5618 5617 5615
5692 5690 5688 5686 5685 5682 5678 5675 5673 5670 5668 5664 5661 5658 5656 5654 5652 5650 5648 5645 5641 5637 5634 5631 5628 5626 5623 5620 5618 5615 5612 5610 5609
5690 5687 5685 5685 5682 5679 5674 5672 5669 5666 5664 5660 5658 5656 5655 5651 5649 5647 5644 5641 5637 5633 5630 5628 5624 5621 5618 5615 5611 5608 5606 5604 5602
5687 5685 5683 5682 5679 5675 5671 5668 5664 5662 5659 5656 5654 5653 5651 5648 5647 5644 5639 5635 5632 5629 5624 5622 5619 5616 5612 5610 5608 5605 5600 5597 5595
5686 5684 5681 5677 5674 5670 5667 5663 5660 5657 5654 5652 5652 5649 5648 5646 5643 5638 5634 5630 5626 5623 5620 5616 5613 5610 5607 5604 5603 5600 5595 5591 5588
5684 5681 5678 5673 5669 5666 5662 5660 5656 5654 5651 5648 5648 5644 5643 5642 5638 5635 5631 5627 5624 5621 5617 5611 5607 5603 5600 5597 5594 5591 5588 5583 5578
5679 5677 5674 5671 5666 5665 5662 5656 5653 5649 5645 5641 5644 5642 5640 5637 5635 5633 5630 5626 5622 5618 5612 5606 5600 5597 5592 5590 5587 5585 5583 5579 5575
5676 5674 5671 5667 5664 5661 5657 5652 5648 5645 5641 5637 5632 5635 5639 5632 5631 5627 5623 5620 5615 5610 5605 5599 5594 5589 5585 5583 5580 5576 5573 5571 5569
5671 5670 5667 5665 5660 5657 5654 5649 5646 5642 5638 5633 5629 5625 5626 5623 5627 5623 5617 5612 5608 5604 5599 5593 5589 5584 5578 5574 5570 5566 5563 5561 5558
5663 5662 5661 5659 5655 5652 5650 5646 5642 5636 5633 5624 5622 5619 5617 5615 5617 5616 5611 5607 5602 5598 5592 5585 5580 5574 5569 5566 5563 5556 5552 5548 5548
5648 5647 5647 5647 5646 5645 5643 5639 5635 5630 5627 5622 5618 5614 5608 5603 5599 5608 5603 5597 5594 5588 5582 5578 5571 5566 5561 5556 5549 5543 5538 5534 5531